STARLINK-3657, 51990

Orbit data source: Space-Track

STARLINK-3657, 51990 is a payload satellite owned by SpaceX/Seattle (US) in LEO that was launched on Wed, 09 Mar 2022 UTC via an FALCON 9 launch vehicle from the Air Force Eastern Test Range (AFETR). Payload-class satellites include a variety of spacecraft equipped with specific instruments for various scientific and technological missions. These include communications satellites like Starlink; space stations such as the ISS; scientific satellites like the Hubble; Earth observation satellites from companies like Planet Labs, Umbra, and HawkEye 360; GPS; miniature CubeSats for education and research; and military/defense satellites.

Loading next visibility...
Identifier
51990, 2022-025AL
Orbit
LEO
Country
Flag of USUS
Related business
Manufacturer
SpaceX/Seattle
Mission
Operational Commercial Communications
Bus & Motor
STARLINK, Unknown motor
Mass
297 kg wet, ~275 kg dry
Launch date (UTC)
2022-03-09 (4 years ago)
Launch vehicle
FALCON 9
Launch site
Air Force Eastern Test Range (AFETR)
Object type
Payload
Rocket body
Debris
Shape & HBR
Box + 1 Pan, 10.1 m
Radar Cross Section
13.562 m², Large (>1 m²)

Expand to show TLE details & history
Last TLE update: 9 hours ago

TLE from 9 hours ago
0 STARLINK-3657
1 51990U 22025AL  25346.90524833  .00001286  00000-0  98885-4 0  9998
2 51990  53.2184  48.7130 0001359  74.5239 285.5903 15.08843315208235
Epoch: 2025-12-12T21:43Z
TLE epoch observation values (Epoch: 2025-12-12T21:43:33.455Z)
Latitude
-0.00005°
Longitude
0.9834°
Altitude
540.378 km
Speed
7.594 km/s
True Right ascension
03h 14m 51s
True Declination
0° 00' 00"
Sunlit
Object was in full shadow at epoch
Visualization orbit readout
Latitude
Unknown
Longitude
Unknown
Altitude
Unknown
Speed
Unknown
Apparent Right ascension
Unknown
Apparent Declination
Unknown
Sunlit
N/A
Visualization observer readout
Local Sidereal Time
05:22:26
Azimuth
Unknown
Elevation
Unknown
Doppler factor
Unknown
Orbital elements
Apogee altitude
540.918 km
Perigee altitude
539.038 km
Semi-major axis
6,918.115 km
Eccentricity
0.00014
Inclination
53.2184°
RAAN
48.713°
Arg. of periapsis
74.5239°
True anomaly
285.5753°
Mean anomaly
285.5903°
Eccentric anomaly
285.5828°
Mean motion
3.77191 °/min
Orbital period
95.44 mins
BSTAR
0.000098885
Loading maneuver chart data...
Computing Atmospheric mass density...
Loading historical data...
Loading historical data...
Loading historical data...
Loading historical data...
Loading historical data...
Loading historical data...
Loading historical data...

Documentation

Showing up to 5 results
|